Flag for Germany Weather past 2 weeks in Görlitz, Saxony, Germany

Now
70 °F

Scattered clouds.


Feels Like: 73 °F
Forecast: 58 / 85 °F
Wind: 3 mph from East

Location: Goerlitz

Current Time: Jul 25, 2014 at 8:25:16 PM

Latest Report: Jul 25, 2014 at 8:00 PM


Visibility: 13 mi

Pressure: 29.91 "Hg

Humidity: 75%

Dew point: 62 °F

Location of GörlitzLocation

Historic Weather in Görlitz — Graph

°F

Görlitz temperature yesterday

Maximum temperature yesterday: 64 °F (at 2:00 PM)
Minimum temperature yesterday: 55 °F (at 4:00 AM)
Average temperature yesterday: 60 °F

Past Weeks' High & Low Weather Summary

 TemperatureHumidityPressure
High91 °F (Jul 20, 6:00 PM)98% (Jul 18, 5:00 AM)30.16 "Hg (Jul 18, 5:00 AM)
Low53 °F (Jul 13, 2:00 AM)24% (Jul 23, 5:00 PM)29.75 "Hg (Jul 21, 7:00 AM)
Average68 °F73%29.95 "Hg
* Reported Jul 10 7:00 PM — Jul 25 7:00 PM, Görlitz, Weather by CustomWeather, © 2014

Note: Actual official high and low records may vary slightly from our data, if they occured in-between our weather recording intervals... More about our weather records

Advertising

Görlitz weather history for previous 24 hours

 ConditionsComfort  
Time TempWeatherWind HumidityBarometerVisibility
7:00 PM
Jul 25
71 °FScattered clouds.3 mph74%29.91 "Hg12 mi
6:00 PM73 °FSprinkles. Partly sunny.6 mph69%29.91 "Hg31 mi
5:00 PM76 °FPartly sunny.1 mph57%29.90 "Hg28 mi
4:00 PM72 °FPartly sunny.2 mph66%29.91 "Hg28 mi
3:00 PM71 °FOvercast.3 mph66%29.92 "Hg25 mi
2:00 PM71 °FOvercast.3 mph69%29.92 "Hg22 mi
1:00 PM71 °FOvercast.3 mph72%29.93 "Hg14 mi
12:00 PM70 °FOvercast.2 mph75%29.93 "Hg14 mi
11:00 AM69 °FOvercast.3 mph82%29.93 "Hg14 mi
10:00 AM66 °FOvercast.1 mph82%29.93 "Hg11 mi
9:00 AM64 °FLow clouds.1 mph89%29.93 "Hg7 mi
8:00 AM63 °FFog.2 mph94%29.93 "Hg4 mi
7:00 AM62 °FFog.2 mph96%29.92 "Hg4 mi
6:00 AM62 °FLow clouds.1 mph96%29.92 "Hg4 mi
5:00 AM62 °FFog.3 mph96%29.92 "Hg4 mi
4:00 AM62 °FFog.3 mph96%29.91 "Hg3 mi
3:00 AM62 °FFog.3 mph98%29.90 "Hg3 mi
2:00 AM62 °FLow clouds.3 mph97%29.91 "Hg2 mi
1:00 AM62 °FLow clouds.3 mph98%29.92 "Hg2 mi
12:00 AM62 °FLow clouds.6 mph98%29.92 "Hg2 mi
11:00 PM
Jul 24
62 °FRain. Low clouds.6 mph97%29.92 "Hg2 mi
10:00 PM62 °FRain. Low clouds.6 mph97%29.91 "Hg2 mi
9:00 PM62 °FRain. Low clouds.5 mph97%29.90 "Hg2 mi
8:00 PM62 °FRain. Low clouds.5 mph97%29.90 "Hg2 mi
Weather by CustomWeather, © 2014

See weather overviewHow to use our weather pages